Tracking 30922 objects as of 2-Jul-2025
HD Live streaming from Space Station
objects crossing your sky now

CZ-3B R/B

Track CZ-3B R/B now!
10-day predictions


NORAD ID: 45864
Int'l Code: 2020-045B
Perigee: 181.3 km
Apogee: 16,704.9 km
Inclination: 28.3 °
Period: 299.1 minutes
Semi major axis: 14814 km
RCS: Unknown
Launch date: July 9, 2020
Source: People's Republic of China (PRC)
Launch site: Xichang Space Center, China (XSC)

Note: This is a ROCKET BODY
Your satellite tracking list
Your tracking list is empty




NASA's NSSDC Master Catalog

Two Line Element Set (TLE):
1 45864U 20045B   25181.95330274  .00140747  43043-7  15226-2 0  9990
2 45864  28.3046 113.5511 5577003 127.2305 297.8062  4.81493970 59098
Source of the keplerian elements: AFSPC